This demonstration page uses our WeatherBlox Daily Observations layout. Learn more.

Left ArrowRight Arrow

Hourly Observations for August 17, 2020

Temp ( °F °C ) Dew Point ( °F °C ) Humidity (%) Winds ( mph kmh ) Pressure ( in mb ) Visibility ( mi km ) Precip ( " mm )
12:15 am 00:15 Clear 62 16.4 60 15.6 95 95 Calm 30.01 1016 10 16 0.00 0.00
12:35 am 00:35 Clear 60 15.8 59 15.1 96 96 W 3 6 30.02 1017 10 16 0.00 0.00
12:55 am 00:55 Clear 60 15.7 59 15 96 96 Calm 30.02 1017 10 16 0.00 0.00
1:15 am 01:15 Clear 61 16.1 60 15.4 96 96 Calm 30.02 1017 10 16 0.00 0.00
1:35 am 01:35 Clear 60 15.6 59 15.1 97 97 Calm 30.02 1017 10 16 0.00 0.00
1:55 am 01:55 Clear 61 16 60 15.3 96 96 Calm 30.02 1017 10 16 0.00 0.00
2:15 am 02:15 Clear 61 15.9 60 15.5 97 97 Calm 30.02 1017 10 16 0.00 0.00
2:35 am 02:35 Clear 61 16 60 15.3 96 96 WSW 5 7 30.03 1017 10 16 0.00 0.00
2:55 am 02:55 Clear 62 16.5 60 15.5 94 94 SW 3 6 30.03 1017 10 16 0.00 0.00
3:15 am 03:15 Clear 61 15.9 59 15.1 95 95 Calm 30.03 1017 10 16 0.00 0.00
3:35 am 03:35 Clear 61 16.1 60 15.3 95 95 W 5 7 30.03 1017 10 16 0.00 0.00
3:55 am 03:55 Clear 64 17.6 61 16 90 90 W 6 9 30.02 1017 10 16 0.00 0.00
4:15 am 04:15 Clear 64 17.6 61 16.2 92 92 W 6 9 30.02 1017 10 16 0.00 0.00
4:35 am 04:35 Clear 63 17.2 61 16 93 93 W 7 11 30.03 1017 10 16 0.00 0.00
4:55 am 04:55 Clear 63 17.2 61 16.2 94 94 W 6 9 30.03 1017 10 16 0.00 0.00
5:15 am 05:15 Clear 63 17 61 16.1 94 94 W 5 7 30.03 1017 10 16 0.00 0.00
5:35 am 05:35 Clear 63 17 61 16.2 95 95 W 5 7 30.03 1017 10 16 0.00 0.00
5:55 am 05:55 Clear 62 16.9 61 16.2 96 96 WNW 5 7 30.03 1017 10 16 0.00 0.00
6:15 am 06:15 Clear 63 17 61 16.2 95 95 WNW 6 9 30.03 1017 10 16 0.00 0.00
6:35 am 06:35 Clear 62 16.8 61 16.1 96 96 WNW 5 7 30.03 1017 10 16 0.00 0.00
6:55 am 06:55 Clear 62 16.5 61 15.9 96 96 WNW 3 6 30.03 1017 10 16 0.00 0.00
7:15 am 07:15 Sunny 61 16.1 60 15.5 96 96 WNW 3 6 30.03 1017 10 16 0.00 0.00
7:35 am 07:35 Sunny 60 15.5 59 15.1 97 97 Calm 30.03 1017 10 16 0.00 0.00
7:55 am 07:55 Sunny 61 16.3 60 15.8 97 97 Calm 30.03 1017 10 16 0.00 0.00
8:15 am 08:15 Sunny 64 17.8 62 16.7 93 93 Calm 30.03 1017 10 16 0.00 0.00
8:35 am 08:35 Sunny 66 19 62 16.8 87 87 W 3 6 30.03 1017 10 16 0.00 0.00
8:55 am 08:55 Sunny 68 20 63 17.4 85 85 Calm 30.03 1017 10 16 0.00 0.00
9:15 am 09:15 Partly Cloudy 69 20.5 64 18 86 86 WNW 3 6 30.02 1017 10 16 0.00 0.00
9:35 am 09:35 Partly Cloudy 71 21.5 64 17.5 78 78 WNW 3 6 30.02 1017 10 16 0.00 0.00
9:55 am 09:55 Sunny 71 21.7 64 17.8 79 79 Calm 30.03 1017 10 16 0.00 0.00
10:15 am 10:15 Mostly Cloudy 73 22.6 65 18.2 76 76 WNW 3 6 30.03 1017 10 16 0.00 0.00
10:35 am 10:35 Partly Cloudy 74 23.3 64 17.9 72 72 WNW 3 6 30.03 1017 10 16 0.00 0.00
10:55 am 10:55 Partly Cloudy 74 23.1 65 18.6 76 76 Calm 30.03 1017 10 16 0.00 0.00
11:15 am 11:15 Sunny 76 24.5 64 17.9 67 67 W 5 7 30.02 1017 10 16 0.00 0.00
11:35 am 11:35 Partly Cloudy 76 24.7 64 17.9 66 66 WNW 6 9 30.02 1017 10 16 0.00 0.00
11:55 am 11:55 Partly Cloudy 76 24.2 65 18.1 69 69 W 5 7 30.02 1017 10 16 0.00 0.00
12:15 pm 12:15 Mostly Cloudy 76 24.2 67 19.4 75 75 SW 5 7 30.02 1017 10 16 0.00 0.00
12:35 pm 12:35 Partly Cloudy 77 24.9 66 18.7 69 69 Calm 30.01 1016 10 16 0.00 0.00
12:55 pm 12:55 Mostly Cloudy 77 24.9 62 16.9 61 61 Calm 30.01 1016 10 16 0.00 0.00
1:15 pm 13:15 Mostly Cloudy 78 25.6 65 18.5 65 65 WNW 3 6 30.01 1016 10 16 0.00 0.00
1:35 pm 13:35 Sunny 78 25.7 64 17.8 62 62 N 5 7 30.01 1016 10 16 0.00 0.00
1:55 pm 13:55 Sunny 80 26.4 64 17.7 59 59 N 6 9 30.01 1016 10 16 0.00 0.00
2:15 pm 14:15 Sunny 80 26.4 63 17.2 57 57 N 6 9 30.00 1016 10 16 0.00 0.00
2:35 pm 14:35 Sunny 80 26.4 64 17.6 59 59 NNW 7 11 30.00 1016 10 16 0.00 0.00
2:55 pm 14:55 Sunny 80 26.6 63 17.4 57 57 NNW 3 6 29.98 1015 10 16 0.00 0.00
3:15 pm 15:15 Partly Cloudy 80 26.8 64 18 59 59 SSE 3 6 29.98 1015 10 16 0.00 0.00
3:35 pm 15:35 Sunny 80 26.4 67 19.7 67 67 N 7 11 29.99 1015 10 16 0.00 0.00
3:55 pm 15:55 Mostly Cloudy 77 25.1 68 20.1 74 74 NE 7 11 29.98 1015 10 16 0.00 0.00
4:15 pm 16:15 Partly Cloudy 77 25 67 19.7 72 72 NE 6 9 29.97 1015 10 16 0.00 0.00
4:35 pm 16:35 Sunny 78 25.3 68 19.8 72 72 N 6 9 29.97 1015 10 16 0.00 0.00
4:55 pm 16:55 Sunny 78 25.5 67 19.5 70 70 NNE 3 6 29.96 1015 10 16 0.00 0.00
5:15 pm 17:15 Partly Cloudy 76 24.2 67 19.5 75 75 Calm 29.96 1015 10 16 0.00 0.00
5:35 pm 17:35 Mostly Cloudy with Drizzle 75 23.9 68 19.8 78 78 WNW 5 7 29.97 1015 10 16 0.00 0.00
5:55 pm 17:55 Cloudy with Rain 72 22.1 67 19.5 85 85 NNW 6 9 29.98 1015 7 11 0.00 0.00
6:15 pm 18:15 Cloudy 72 22.1 67 19.5 85 85 N 5 7 29.97 1015 10 16 0.00 0.00
6:35 pm 18:35 Cloudy 73 22.7 66 19 80 80 NNE 3 6 29.96 1014 10 16 0.00 0.00
6:55 pm 18:55 Mostly Cloudy 73 22.7 67 19.5 82 82 Calm 29.96 1014 10 16 0.00 0.00
7:15 pm 19:15 Mostly Cloudy 72 22.2 66 18.8 81 81 W 8 13 29.97 1015 10 16 0.00 0.00
7:35 pm 19:35 Cloudy with Light Rain 70 21 66 18.7 87 87 W 6 9 29.98 1015 10 16 0.01 0.25
7:55 pm 19:55 Cloudy with Rain 69 20.3 65 18.2 88 88 WSW 6 9 29.99 1015 7 11 0.01 0.25
8:15 pm 20:15 Cloudy with Heavy Rain 68 19.8 65 18.6 93 93 Calm 29.99 1015 5 8 0.04 1.02
8:35 pm 20:35 Cloudy with Light Rain 67 19.5 66 18.8 96 96 ESE 5 7 29.98 1015 10 16 0.05 1.27
8:55 pm 20:55 Cloudy 67 19.3 66 18.8 97 97 S 3 6 29.97 1015 10 16 0.05 1.27
9:15 pm 21:15 Cloudy 67 19.5 66 19 97 97 N 3 6 29.97 1015 10 16 0.00 0.00
9:35 pm 21:35 Mostly Cloudy 67 19.3 66 18.8 97 97 Calm 29.98 1015 10 16 0.00 0.00
9:55 pm 21:55 Partly Cloudy 65 18.6 65 18.5 99 99 Calm 29.98 1015 7 11 0.00 0.00
10:15 pm 22:15 Mostly Cloudy 66 19 65 18.5 97 97 Calm 29.98 1015 10 16 0.00 0.00
10:35 pm 22:35 Cloudy 65 18.6 65 18.5 99 99 Calm 29.98 1015 10 16 0.00 0.00
10:55 pm 22:55 Cloudy 66 18.7 65 18.5 99 99 Calm 29.98 1015 10 16 0.00 0.00
11:15 pm 23:15 Cloudy 65 18.5 65 18.5 100 100 Calm 29.98 1015 10 16 0.00 0.00
11:35 pm 23:35 Cloudy 66 19 66 18.8 99 99 Calm 29.98 1015 10 16 0.00 0.00
11:55 pm 23:55 Cloudy 66 19.1 66 18.8 98 98 N 6 9 29.97 1015 10 16 0.00 0.00

Powered by AerisWeather